sat.trackr.live / text

‹ back to catalog

STARLINK-38082

NORAD 69993 · 2026-159U

PAYLOAD ACTIVE UNKNOWN

§ Identity

Operator
Country
US
Launch date
2026-07-11
Launch site
AFWTR
Launch vehicle
Mass (kg)
RCS (m²)

Purposes: comms

External: N2YO · Heavens-Above · Gunter

§ Orbital elements

Epoch: 2026-09-20T04:00:03.000096Z

Period
93.45 min
Inclination
97.2852°
Eccentricity
0.0002617
Mean motion
15.40930877 rev/d
Perigee alt
441.6 km
Apogee alt
445.1 km
Semi-major
6,821.5 km
B*
-7.9201e-2
RAAN
104.9862°
Arg perigee
64.4752°
Mean anomaly
348.0645°
Rev number
599

§ Raw data

STARLINK-380821 69993U 26159U   26263.16670139 -.02887052  00000+0 -79201-1 0  99942 69993  97.2852 104.9862 0002617  64.4752 348.0645 15.40930877  5992

JSON: /api/v1/satellites/69993 · /tle

For live sub-satellite position, see the globe view (requires WebGL).

§ Visibility from observer

Set your observer location to see the next 7 days of passes ≥ 10°. The values pass through the URL so the page stays shareable.

No JS? Fill the form by hand. The geolocation button needs JavaScript.